Location: Fort Worth, Tx
(32.7431°N, 97.3695°W)
Time: 16:59:31
(UTC-04:00)

A-11 Canister half - Pass Details

Date: 01 March 2024
Orbit: 1525 x 1683 km, 47.3° (Epoch: 21 April)

Event Time Altitude Azimuth Distance (km) Brightness Sun altitude
Exits shadow 06:23:30 11° 217° (SW) 3,683 10.6 -20.4°
Drops below altitude 10° 06:23:52 10° 215° (SW) 3,723 10.7 -20.3°
Sets 06:29:32 0° 189° (S) 4,735 11.4 -19.1°
